TimeCET,TemperatureF,Dew PointF,Humidity,Sea Level PressureIn,VisibilityMPH,Wind Direction,Wind SpeedMPH,Gust SpeedMPH,PrecipitationIn,Events,Conditions,WindDirDegrees,DateUTC
12:20 AM,48.2,41.0,76,29.83,6.2,SW,20.7,-,N/A,,Mostly Cloudy,220,2012-12-29 23:20:00
12:50 AM,44.6,41.0,87,29.83,6.2,WSW,20.7,-,N/A,Rain,Light Rain Showers,240,2012-12-29 23:50:00
1:00 AM,45,41,81,29.86,19,WSW,20.1,,,Rain,Light Rain Showers,240,2012-12-30 00:00:00
1:20 AM,46.4,41.0,81,29.83,6.2,SW,18.4,-,N/A,,Mostly Cloudy,230,2012-12-30 00:20:00
1:50 AM,46.4,41.0,81,29.83,6.2,SW,21.9,33.4,N/A,,Mostly Cloudy,230,2012-12-30 00:50:00
2:20 AM,46.4,39.2,76,29.86,6.2,SW,18.4,-,N/A,Rain,Light Rain Showers,220,2012-12-30 01:20:00
2:50 AM,44.6,41.0,87,29.86,6.2,WSW,19.6,-,N/A,,Mostly Cloudy,240,2012-12-30 01:50:00
3:20 AM,46.4,39.2,76,29.86,6.2,SW,19.6,-,N/A,,Mostly Cloudy,220,2012-12-30 02:20:00
3:50 AM,44.6,39.2,81,29.86,4.3,SW,18.4,-,N/A,Rain,Light Rain Showers,220,2012-12-30 02:50:00
4:00 AM,45,39,73,29.89,13,SW,17.9,,,Rain,Light Rain Showers,220,2012-12-30 03:00:00
4:20 AM,44.6,39.2,81,29.86,6.2,SSW,23.0,-,N/A,Rain,Light Rain Showers,210,2012-12-30 03:20:00
4:50 AM,44.6,39.2,81,29.86,6.2,SW,20.7,-,N/A,,Mostly Cloudy,220,2012-12-30 03:50:00
5:20 AM,42.8,37.4,81,29.86,6.2,SW,23.0,35.7,N/A,,Scattered Clouds,220,2012-12-30 04:20:00
5:50 AM,42.8,37.4,81,29.86,6.2,SW,19.6,-,N/A,,Scattered Clouds,220,2012-12-30 04:50:00
6:20 AM,44.6,37.4,76,29.86,6.2,SSW,20.7,-,N/A,,Scattered Clouds,210,2012-12-30 05:20:00
6:50 AM,42.8,37.4,81,29.89,6.2,SW,21.9,-,N/A,Rain,Light Rain Showers,220,2012-12-30 05:50:00
7:00 AM,43,38,77,29.91,6,SW,22.4,,,Rain,Light Rain Showers,220,2012-12-30 06:00:00
7:20 AM,42.8,35.6,76,29.89,6.2,SW,23.0,-,N/A,Rain,Light Rain Showers,230,2012-12-30 06:20:00
7:50 AM,42.8,37.4,81,29.92,6.2,SW,21.9,-,N/A,,Mostly Cloudy,230,2012-12-30 06:50:00
8:20 AM,42.8,37.4,81,29.92,6.2,WSW,12.7,-,N/A,Rain,Light Rain Showers,250,2012-12-30 07:20:00
8:50 AM,42.8,35.6,76,29.92,6.2,SW,20.7,-,N/A,,Mostly Cloudy,220,2012-12-30 07:50:00
9:20 AM,42.8,37.4,81,29.95,3.1,SW,18.4,-,N/A,Rain,Rain Showers,230,2012-12-30 08:20:00
9:50 AM,42.8,39.2,87,29.95,6.2,SW,16.1,-,N/A,Rain,Light Rain Showers,230,2012-12-30 08:50:00
10:00 AM,42,38,83,29.98,9,SW,15.7,,,Rain,Light Rain Showers,230,2012-12-30 09:00:00
10:20 AM,37.4,35.6,93,29.98,2.5,West,12.7,-,N/A,Rain,Rain Showers,280,2012-12-30 09:20:00
10:50 AM,39.2,37.4,93,29.98,6.2,West,5.8,-,N/A,Rain,Light Rain Showers,270,2012-12-30 09:50:00
11:20 AM,41.0,39.2,93,29.98,6.2,WSW,18.4,-,N/A,Rain,Light Rain Showers,250,2012-12-30 10:20:00
11:50 AM,42.8,37.4,81,29.98,6.2,SW,17.3,-,N/A,,Mostly Cloudy,230,2012-12-30 10:50:00
12:20 PM,42.8,35.6,76,29.98,6.2,SW,23.0,-,N/A,,Scattered Clouds,230,2012-12-30 11:20:00
12:50 PM,42.8,37.4,81,29.98,6.2,SW,23.0,36.8,N/A,,Mostly Cloudy,230,2012-12-30 11:50:00
1:00 PM,43,37,72,30.01,19,SW,22.4,,,,Partly Cloudy,230,2012-12-30 12:00:00
1:20 PM,44.6,37.4,76,29.98,6.2,SW,23.0,-,N/A,,Scattered Clouds,230,2012-12-30 12:20:00
1:50 PM,44.6,37.4,76,29.98,6.2,SW,23.0,-,N/A,,Scattered Clouds,230,2012-12-30 12:50:00
2:20 PM,44.6,37.4,76,30.01,6.2,SW,20.7,-,N/A,,Mostly Cloudy,230,2012-12-30 13:20:00
2:50 PM,44.6,37.4,76,30.01,6.2,SW,19.6,-,N/A,,Mostly Cloudy,220,2012-12-30 13:50:00
3:20 PM,44.6,37.4,76,30.01,6.2,SW,24.2,-,N/A,,Mostly Cloudy,230,2012-12-30 14:20:00
3:50 PM,44.6,37.4,76,30.01,6.2,SW,20.7,-,N/A,,Scattered Clouds,220,2012-12-30 14:50:00
4:00 PM,45,38,68,30.03,19,SW,20.1,,,,Mostly Cloudy,220,2012-12-30 15:00:00
4:20 PM,44.6,37.4,76,30.01,6.2,SW,18.4,-,N/A,,Scattered Clouds,220,2012-12-30 15:20:00
4:50 PM,44.6,37.4,76,30.01,6.2,SW,21.9,-,N/A,,Scattered Clouds,230,2012-12-30 15:50:00
5:20 PM,44.6,37.4,76,30.01,6.2,SW,23.0,-,N/A,,Scattered Clouds,220,2012-12-30 16:20:00
5:50 PM,44.6,37.4,76,30.04,6.2,SW,23.0,-,N/A,Rain,Light Rain Showers,230,2012-12-30 16:50:00
6:20 PM,44.6,37.4,76,30.04,6.2,SW,21.9,-,N/A,,Mostly Cloudy,220,2012-12-30 17:20:00
6:50 PM,44.6,39.2,81,30.04,5.0,SW,20.7,-,N/A,Rain,Light Rain Showers,230,2012-12-30 17:50:00
7:00 PM,44,39,76,30.07,5,SW,20.1,,,Rain,Light Rain Showers,230,2012-12-30 18:00:00
7:20 PM,44.6,39.2,81,30.06,4.3,SW,19.6,-,N/A,Rain,Light Rain Showers,230,2012-12-30 18:20:00
7:50 PM,44.6,39.2,81,30.06,6.2,SW,23.0,-,N/A,,Mostly Cloudy,220,2012-12-30 18:50:00
8:20 PM,44.6,39.2,81,30.06,6.2,SW,19.6,-,N/A,,Mostly Cloudy,220,2012-12-30 19:20:00
8:50 PM,44.6,39.2,81,30.06,6.2,SW,19.6,-,N/A,,Mostly Cloudy,230,2012-12-30 19:50:00
9:20 PM,44.6,41.0,87,30.06,6.2,SW,18.4,-,N/A,Rain,Light Rain Showers,220,2012-12-30 20:20:00
9:50 PM,44.6,41.0,87,30.06,6.2,SW,20.7,-,N/A,Rain,Light Rain Showers,220,2012-12-30 20:50:00
10:00 PM,45,41,79,30.10,11,SW,20.1,,,Rain,Light Rain Showers,220,2012-12-30 21:00:00
10:20 PM,44.6,41.0,87,30.06,6.2,SW,20.7,-,N/A,,Mostly Cloudy,220,2012-12-30 21:20:00
10:50 PM,44.6,39.2,81,30.06,6.2,SW,20.7,-,N/A,,Mostly Cloudy,220,2012-12-30 21:50:00
11:20 PM,46.4,39.2,76,30.06,6.2,SW,21.9,-,N/A,,Mostly Cloudy,220,2012-12-30 22:20:00
11:50 PM,44.6,39.2,81,30.06,6.2,SW,21.9,-,N/A,,Scattered Clouds,220,2012-12-30 22:50:00